Vorticity
nan nan nan nan nan nan nan nan nan nan nan nan nan nan nan nan nan nan nan nan nan nan nan nan nan nan nan nan nan nan nan nan
nan 9 7 7 8 8 6 5 6 4 7 7 7 8 8 8 10 10 8 8 9 5 6 8 7 8 8 7 7 8 8 nan
nan 7 7 9 7 7 7 6 6 4 4 7 8 8 8 8 9 12 10 7 8 8 6 7 7 7 9 9 7 7 8 nan
nan 6 9 6 7 7 7 8 6 6 4 3 6 8 8 9 9 10 12 10 7 7 6 6 7 8 8 10 9 6 6 nan
nan 7 4 5 7 9 12 10 6 7 7 5 7 4 7 8 8 7 11 12 8 7 8 6 6 8 9 7 9 8 7 nan
nan 9 9 8 3 5 9 8 11 10 7 5 5 6 4 8 10 11 9 11 12 8 8 8 6 6 9 8 8 7 6 nan
nan 7 6 6 7 10 11 11 7 8 11 10 5 5 4 4 7 8 10 10 13 12 8 8 8 8 8 9 8 8 6 nan
nan 14 12 9 9 10 12 10 7 11 12 10 10 6 8 6 5 8 8 8 11 14 11 7 9 8 8 8 10 9 8 nan
nan 12 9 16 15 12 9 6 8 11 13 12 11 7 5 11 7 7 8 9 11 12 12 10 9 9 7 7 8 10 9 nan
nan 11 7 14 11 10 14 13 10 12 11 13 11 10 7 7 9 5 8 10 9 12 11 10 9 9 9 7 8 9 10 nan
nan 11 10 12 13 15 13 10 11 10 11 11 10 11 10 7 10 11 8 8 10 9 10 9 10 10 10 8 8 10 8 nan
nan 12 10 14 12 11 10 10 9 9 13 12 10 11 10 9 8 9 10 10 9 9 10 9 10 9 9 8 9 10 10 nan
nan 4 9 12 11 10 9 10 11 12 12 9 11 11 11 11 10 10 10 10 9 10 9 10 10 11 10 8 8 10 10 nan
nan 10 9 8 11 11 11 9 9 11 13 15 13 11 11 11 11 11 10 11 10 10 10 10 10 10 10 11 9 9 10 nan
nan 9 12 8 6 4 8 10 11 10 11 13 14 14 12 11 11 12 12 11 11 10 10 10 11 10 9 11 10 10 11 nan
nan 5 1 5 7 6 8 7 8 11 11 11 13 13 13 13 12 12 12 10 11 11 10 10 10 8 14 13 10 11 9 nan
nan 7 10 7 4 8 8 9 10 10 11 11 12 15 15 13 14 14 15 15 14 11 11 11 7 11 18 14 12 10 9 nan
nan 15 8 10 13 13 11 8 9 9 10 12 12 12 14 11 13 17 17 16 16 14 12 11 9 13 15 11 10 10 10 nan
nan nan nan nan nan nan nan nan nan nan nan nan nan nan nan nan nan nan nan nan nan nan nan nan nan nan nan nan nan nan nan nan
CAPE
607 149 151 83 11 56 266 1053 1174 1607 1296 1459 1024 901 1221 939 880 743 968 904 831 644 115 187 233 19 43 102 272 173 89 21
205 238 255 260 187 119 316 942 1407 1189 1158 1312 1240 1382 1415 1294 895 1099 1103 1087 1154 940 482 361 417 110 133 341 429 412 150 161
0 82 244 479 389 772 811 895 1484 1360 1193 1193 1140 1125 1281 1075 1224 1266 1234 1218 1377 1151 880 441 308 153 424 509 414 207 175 211
0 0 10 133 434 1096 888 1529 1797 1648 1467 1418 1308 1294 1393 1128 1312 1352 1334 1301 1349 1433 1213 963 679 440 388 611 668 585 275 323
0 0 0 0 0 223 987 1312 1756 2267 2261 1780 1751 1495 1436 1434 1565 1480 1542 1525 1442 1432 1487 1358 1249 876 635 804 677 750 696 414
0 0 0 0 0 0 136 181 772 1799 2513 2436 2294 2177 1971 1922 1883 1966 1898 1895 1606 1473 1567 1551 1437 1397 1147 924 940 1009 925 682
0 0 0 0 0 0 96 166 15 213 2034 2820 2579 2627 2366 2082 2198 2045 2056 1927 2011 1717 1566 1642 1630 1522 1514 1368 1222 1462 1176 1086
0 0 0 0 0 0 1 4 16 27 686 2420 2844 2647 2775 2499 2466 2325 2291 2100 2011 2036 1854 1748 1696 1733 1666 1520 1596 1454 1583 1231
0 0 0 0 0 0 0 0 0 21 197 1300 2701 2741 2484 2676 2379 2350 2350 2197 2157 2226 2043 1917 1879 1726 1719 1697 1527 1593 1576 1644
0 0 0 0 0 0 0 0 0 0 3 566 2170 2631 2503 2355 2486 2413 2245 2484 2052 2203 2123 1900 1878 1729 1757 1678 1538 1556 1548 1693
0 0 0 0 0 0 1 13 0 0 21 242 625 2012 2388 2311 2396 2211 2263 2529 2313 2068 2280 2097 1895 1894 1874 1809 1651 1560 1422 1394
0 0 0 0 0 0 0 1 56 146 369 99 648 1180 1738 2021 2131 2155 2230 2447 2437 2234 2307 2337 2185 2226 2267 1784 1443 1144 1214 1441
0 0 0 0 0 0 0 0 39 195 300 211 376 499 1381 1805 1926 1984 2124 2262 2368 2384 2314 2427 2508 2512 2626 1846 1502 1234 1211 1159
0 0 0 0 0 0 0 0 0 161 453 428 335 528 991 1592 1827 1990 1975 2136 2270 2399 2454 2662 2672 2498 1888 1675 1437 1137 1056 1252
0 0 0 0 0 0 0 0 0 60 156 409 417 436 813 1546 1960 2168 2137 2291 2365 2494 2685 2715 2678 2309 1312 1262 1162 953 921 587
0 0 0 0 0 0 0 0 0 0 101 319 531 410 606 1214 1945 2152 2318 2483 2470 2751 2776 2617 2479 1774 993 1055 755 547 186 1
29 0 0 0 0 0 0 0 0 0 24 272 685 673 488 825 1599 2028 2129 2205 2745 2703 2558 2358 1735 799 420 583 344 28 0 0
14 32 0 0 0 0 0 0 0 0 0 98 466 1052 863 893 1163 1363 1606 1730 1812 2299 1730 1261 473 0 0 0 0 1 2 1
0 0 1 0 0 0 0 0 0 0 0 7 239 601 865 541 624 710 326 276 468 477 233 155 10 0 2 1 0 1 1 0